Lid_Strength_Index
4 4 4 4 4 4 4 4 4 4 4 3 3 2 2 2 2 3 4 2 1 -2 2 2 4 3 3 4 3 3 7 8 7 7 6 4 5 4 3 5 4 4 4 3 2
4 4 4 4 4 4 3 4 4 4 4 3 3 3 2 2 3 4 1 -2 -1 -1 4 3 4 4 5 5 4 5 7 7 5 5 6 5 4 5 5 5 5 5 3 2 2
4 4 4 4 4 4 3 3 3 3 3 3 3 3 2 2 5 5 -2 -2 -2 -1 3 3 3 4 6 5 5 5 7 5 5 4 4 5 5 4 6 6 5 6 5 3 3
4 4 4 4 4 4 4 3 3 3 2 2 2 3 3 3 9 3 -1 -2 -2 2 3 4 4 5 6 7 5 7 5 5 4 4 4 5 4 5 5 5 3 3 3 3 3
5 5 4 4 4 4 4 3 3 3 3 2 2 2 3 6 6 2 -1 -1 1 3 4 5 5 6 7 6 5 6 5 5 4 4 4 4 5 5 5 3 3 3 3 4 3
5 5 4 4 4 4 3 3 3 3 3 2 2 2 3 9 3 4 3 2 2 3 3 4 5 5 6 6 6 5 5 5 5 5 4 5 5 4 4 3 3 4 4 4 3
5 4 4 4 4 4 3 3 3 3 2 2 2 2 4 5 2 3 4 2 2 2 4 3 3 5 5 6 5 5 7 6 6 5 5 4 6 6 4 4 4 4 4 4 3
5 4 4 4 4 3 3 3 3 2 2 2 1 2 6 2 1 2 3 4 2 2 3 2 3 5 5 5 6 7 7 9 6 5 5 5 8 5 3 4 4 4 5 4 4
4 4 4 4 4 3 3 3 3 2 2 2 2 3 6 3 4 3 3 5 4 2 2 3 4 6 6 8 8 8 10 9 8 5 6 6 8 5 4 4 4 4 4 4 4
4 4 4 4 4 4 3 4 2 2 2 1 2 5 3 6 4 2 1 4 5 4 4 5 5 7 7 8 12 10 10 8 8 6 6 7 7 5 4 4 4 4 4 4 4
5 4 4 4 4 4 4 4 7 6 6 8 8 8 7 5 3 3 2 4 5 5 8 6 8 10 8 7 7 7 8 9 7 6 7 7 7 6 5 4 5 4 5 5 4
4 4 4 4 4 4 3 7 7 6 9 6 6 5 4 3 7 5 2 6 7 9 7 8 10 8 6 6 7 7 8 8 7 6 7 7 7 6 5 5 4 4 5 5 4
4 4 5 4 5 4 4 6 4 3 8 7 4 4 3 2 5 6 4 4 8 9 8 9 8 6 7 7 8 8 9 8 8 7 7 7 8 7 5 5 4 4 4 4 4
4 5 5 5 5 5 6 4 3 3 10 8 6 4 3 3 6 2 3 4 7 10 8 8 6 7 8 8 7 9 7 8 8 9 11 8 12 8 6 6 5 4 4 4 4
5 5 5 5 5 6 5 3 2 4 16 7 5 1 3 5 5 5 2 4 7 9 8 9 8 8 9 8 7 9 6 8 8 9 9 9 11 9 7 7 6 5 4 4 4
5 5 6 5 4 4 3 2 2 11 16 8 5 7 8 7 6 4 5 3 4 7 7 8 5 6 8 7 7 6 7 8 8 9 12 10 10 10 8 7 6 5 4 4 4
5 5 5 4 7 3 2 3 10 15 8 10 8 7 9 11 8 7 7 8 11 12 11 9 8 7 6 8 7 7 8 12 13 13 14 9 10 9 7 6 6 5 4 4 4
5 5 4 5 3 2 2 7 16 12 11 7 8 7 11 11 10 9 9 11 11 12 12 11 12 9 7 8 9 9 9 12 16 15 13 9 12 10 6 5 5 5 5 4 4
5 4 5 3 2 2 6 13 14 13 10 9 8 10 11 11 11 11 12 13 12 13 16 13 11 7 7 7 7 9 10 8 10 10 12 11 9 7 6 6 6 6 5 5 5
6 6 7 2 0 3 9 13 12 10 9 8 11 10 13 12 13 12 14 13 14 12 11 12 15 8 7 7 7 7 7 11 10 15 15 12 11 11 8 8 6 6 6 5 4
6 9 6 2 2 7 12 12 11 9 8 9 10 11 11 12 12 13 14 13 13 13 11 13 13 11 7 9 9 9 10 9 9 10 14 14 12 7 7 7 7 6 5 5 4
7 11 6 4 10 9 11 11 10 10 8 8 8 9 10 11 12 12 14 12 12 12 15 13 15 16 13 8 7 7 8 9 12 12 11 11 13 6 6 6 6 6 5 4 4
9 9 5 5 13 11 11 11 10 10 9 9 9 8 8 10 13 11 11 10 10 12 15 14 15 16 13 10 8 9 8 8 8 9 11 13 12 6 7 7 6 6 6 5 4
9 12 9 8 9 11 12 12 12 9 9 8 9 8 9 10 9 11 11 10 10 11 12 12 15 17 19 17 14 13 10 10 10 12 11 11 11 9 8 8 7 7 6 6 5
9 11 10 12 11 10 10 11 12 12 9 8 9 9 10 12 11 11 10 10 10 10 11 12 17 16 16 15 15 15 14 12 12 10 11 10 10 9 8 8 8 8 7 7 7
10 11 9 9 10 10 11 12 12 11 10 11 10 9 9 11 10 12 11 10 12 10 11 11 17 15 17 15 15 17 14 13 13 11 10 10 11 7 7 8 8 9 8 9 8
8 8 9 10 10 11 11 11 11 9 9 8 9 9 10 9 8 7 7 8 8 10 11 12 15 16 19 15 16 18 15 14 12 11 11 11 10 9 9 9 9 9 9 9 9